LogoCoinalyze
    Ad-Free Version Hauptseite Märkte Finanzierungsraten
    Futures-Daten
    • Aggregierte Daten (Coins)
    • Einzelne Charts
    • Globale Charts
    Preisalarme
    TA
    Bitcoin Ethereum BNB Ripple Tron ZCash Dogecoin Monero Chainlink UNUS SED LEO Cardano Stellar Lumens Bitcoin Cash Litecoin Hedera Cronos Polkadot Ethereum Classic Algorand Cosmos Quant Dash VeChain Bitcoin SV BitTorrent Terra Decred Tezos Iota The Graph THETA Decentraland NEO Chiliz MultiversX Horizen Golem Basic Attention Token Qtum DigiByte 0x Beam RIF Token FTX Token Holo FUNToken Zilliqa Ontology aelf Nano Enjin Coin Ravencoin Mask Network Verge Siacoin Status WINk Waves IoTeX iExec RLC Power Ledger Steem Kyber Network Crystal Lisk Ark WOO Network Ardor IOST WAX Icon Storj Wanchain Loopring Bitcoin Diamond Augur AdEx Bitcoin Gold OmiseGO NEM MonaCoin BitShares Ren Komodo V Systems Nuls Mithril SOLVE EOS Aion Nebulas Maker HedgeTrade Bread Fetch.ai TomoChain Polygon Fantom Waltonchain GXChain Bytom Metaverse ETP MaidSafeCoin QASH
    Bestellen nach:
    Mehr
    • API
    • Kerzenformationen
    • Spenden
    • Kontakt
    • Sitemap
    • Privacy Policy
    • Disclaimer
    • Theme:
    Deutsch
    • English
    • Français
    • Русский
    • Türkçe
    • Nederlands
    • Português (BR)
    • Español
    • 한국어
    • 简体中文
    • 日本語
     
    Anmelden / Registrieren
    Markets/ Pepe/ PEPE zu TRY/ PEPETRY Binance
    Trades
    WL
    Chat
    Stat
    Neuigkeiten
    ⦷
    AAA
    0.00017678 44906936.00000000 23:05:07
    0.00017677 44733800.00000000 23:05:07
    0.00017653 78768098.00000000 23:04:42
    0.00017655 44818748.00000000 23:04:42
    0.00017656 173295.00000000 23:04:42
    0.00017657 44733800.00000000 23:04:42
    0.00017663 32302103.00000000 23:04:02
    0.00017661 84962.00000000 23:04:02
    0.00017660 44733800.00000000 23:04:02
    0.00017659 84962.00000000 23:04:02
    0.00017658 44907125.00000000 23:04:02
    0.00017665 11321822.00000000 23:03:28
    0.00017656 42171575.00000000 23:03:20
    0.00017657 258212.00000000 23:03:20
    0.00017659 44818721.00000000 23:03:20
    0.00017655 5739010.00000000 23:02:55
    0.00017647 2937545.00000000 23:02:38
    0.00017647 57807.00000000 23:02:31
    0.00017641 85006.00000000 23:02:20
    0.00017650 21645978.00000000 23:01:49
    0.00017646 173403.00000000 23:01:32
    0.00017643 85000.00000000 23:01:30
    0.00017651 84996.00000000 23:01:00
    0.00017647 26544147.00000000 23:00:57
    0.00017648 3598173.00000000 23:00:53
    0.00017645 258472.00000000 23:00:48
    0.00017642 4943205.00000000 23:00:42
    0.00017641 55.00000000 23:00:42
    0.00017641 19092900.00000000 23:00:42
    0.00017641 3599000.00000000 23:00:42
    0.00017635 57843.00000000 23:00:37
    0.00017634 3599000.00000000 23:00:37
    0.00017647 84900.00000000 23:00:25
    0.00017651 84900.00000000 23:00:20
    0.00017644 3600000.00000000 23:00:05
    0.00017645 2405314.00000000 22:59:05
    0.00017654 52056504.00000000 22:58:11
    0.00017655 258235.00000000 22:58:11
    0.00017656 44733800.00000000 22:58:11
    0.00017657 84924.00000000 22:58:11
    0.00017658 173295.00000000 22:58:11
    0.00017660 44733800.00000000 22:58:11
    0.00017658 3595000.00000000 22:58:11
    0.00017629 3601000.00000000 22:57:05
    0.00017628 41075129.00000000 22:56:54
    0.00017627 69.00000000 22:56:44
    0.00017627 282350800.00000000 22:56:44
    0.00017622 33063763.00000000 22:56:22
    0.00017623 82336237.00000000 22:56:22
    0.00017627 85000.00000000 22:56:19
    0.00017632 25967100.00000000 22:56:12
    0.00017627 74207866.00000000 22:56:08
    0.00017615 85187.00000000 22:55:56
    0.00017613 85189.00000000 22:55:56
    0.00017617 22.00000000 22:55:31
    0.00017617 57619200.00000000 22:55:31
    0.00017617 3602000.00000000 22:55:29
    0.00017617 26096194.00000000 22:55:29
    0.00017617 26096194.00000000 22:55:29
    0.00017617 85170.00000000 22:55:09
    0.00017615 65.00000000 22:55:09
    0.00017612 66.00000000 22:55:09
    0.00017612 77881800.00000000 22:55:09
    0.00017607 44733800.00000000 22:55:09
    0.00017615 133636800.00000000 22:55:09
    0.00017615 123130555.00000000 22:55:09
    0.00017615 44818895.00000000 22:55:09
    0.00017616 82857361.00000000 22:55:09
    0.00017617 44818895.00000000 22:55:09
    0.00017619 44733800.00000000 22:55:09
    0.00017621 44733800.00000000 22:55:09
    0.00017622 18913857.00000000 22:55:09
    0.00017623 41135800.00000000 22:55:09
    0.00017623 3598000.00000000 22:55:09
    0.00017643 48525188.00000000 22:54:57
    0.00017643 27665288.00000000 22:54:57
    0.00017658 1654819.00000000 22:54:50
    0.00017657 84977.00000000 22:54:50
    0.00017655 44818798.00000000 22:54:50
    0.00017654 173382.00000000 22:54:50
    0.00017653 85001.00000000 22:54:50
    0.00017651 77196285.00000000 22:54:50
    0.00017650 44733800.00000000 22:54:50
    0.00017650 77.00000000 22:54:27
    0.00017650 2111900.00000000 22:54:27
    0.00017654 11539074.00000000 22:54:23
    0.00017653 3592000.00000000 22:53:55
    0.00017664 27982832.00000000 22:53:53
    0.00017671 3592000.00000000 22:53:53
    0.00017669 84912.00000000 22:53:52
    0.00017666 80489500.00000000 22:53:46
    0.00017681 84859.00000000 22:53:16
    0.00017673 29257168.00000000 22:53:15
    0.00017674 84849.00000000 22:53:15
    0.00017676 44733800.00000000 22:53:15
    0.00017670 3592000.00000000 22:53:08
    0.00017675 3591000.00000000 22:52:50
    0.00017674 27333803.00000000 22:52:47
    0.00017673 97.00000000 22:52:47
    0.00017673 6264100.00000000 22:52:47
    Abmelden
    AAA
    Hilfe
    🙂 🤣 😎 🤗 😛 😉 😜 🤑 🤔 😑 😴 😕 🙃 😲 😇 🙁 😢 😬 😟 😠 🕺 🏃 💪 ✌ 👌 👍 👎 👏 👋 🤝 🍺 🍻 🐋 🐟 🦈 🗽 🚄 ✈ 🛑 🚀 🏦 🌚 ⭐ 🌞 ⚡ 🏆 💰 💲 🔨 ❓ ❗ 💯 🔶 🏁
    ☺
    Anmelden oder Registrieren zum Chatten
    24 Stunden
    Veränderung
    +7.66%
    Volumen
    1,508,378,084,118
    Hoch
    0.00018655
    Tief
    0.00016378
    7 Tage
    Veränderung
    -4.60%
    Volumen
    6,801,269,918,885
    Hoch
    0.00019297
    Tief
    0.00016213
    30 Tage
    Veränderung
    +28.46%
    Volumen
    39,064,229,530,916
    Hoch
    0.00021642
    Tief
    0.00012111
    DOGE, SHIB, PEPE, or Something Else: Which Meme Coin Can Make History in September? (3 AIs Weigh In)
    "DOGE remains the most likely to record the largest move in dollar terms and lead the entire sector," ChatGPT stated.
    cryptopotato.com
    Sept 3, 2026 00:41
    Pepe price rallies 25% as whale demand and futures interest surge
    Key takeaways Pepe has gained 25% this week, including a combined 22% advance over the previous two days. Seven whale transactions worth more than $1 million each occurred Thursday, the highest...
    coinjournal.net
    Aug 21, 2026 08:41
    PEPE Supply on Exchanges Just Took a Massive Hit – What’s Next?
    A drop in PEPE exchange balances has added to bullish expectations despite muted trader interest.
    cryptopotato.com
    Aug 6, 2026 20:02
    PEPE Exchange Outflows Hit Nearly 2-Year High as Whales Accumulate
    Pepe (PEPE) recorded its largest single-day exchange outflow since November 2024, with 4.54 trillion tokens leaving trading platforms, signaling that holders are moving supply away from immediate...
    beincrypto.com
    Aug 6, 2026 04:57
    Meme Coin Based on White House Shooter Conspiracy Rallies 320%
    $HENRY surged 300% after a 2023 Pepe tweet appeared to name the White House shooter, fueling a viral time-travel meme. The post Meme Coin Based on White House Shooter Conspiracy Rallies 320%...
    beincrypto.com
    Apr 27, 2026 16:11
    PEPE surges 4% as market sentiment improves, eyes Key resistance breakout
    Key takeaways Pepe extends gains on Wednesday, stretching its rally from the 50-day EMA. Derivatives data show heightened retail activity as risk-on sentiment returns to the market. Pepe (PEPE) is...
    coinjournal.net
    Apr 22, 2026 11:44
    Why The PEPE Price Could Stage A 55X Rally To Reach New $0.0001 ATH
    The PEPE price has now started to edge back into bullish conversations after the recent inflows into the crypto market. The last time PEPE’s weekly chart printed the kind of structure now...
    newsbtc.com
    Apr 21, 2026 15:30
    Pepe (PEPE) surges 9%, drawing interest from whales
    Key takeaways PEPE is up 9% in the last 24 hours, making it one of the best performers among the top 50 cryptocurrencies by market cap. The rally comes amid renewed interest from whales and retail...
    coinjournal.net
    Apr 16, 2026 07:40
    Murad Says SPX6900 (SPX) Is Primed for a Rally — Is He Right This Time?
    Crypto influencer Murad Mahmudov claims SPX6900 (SPX) is stabilizing at the same market cap level where Dogecoin (DOGE) and Pepe (PEPE) consolidated before their explosive rallies. The...
    beincrypto.com
    Apr 5, 2026 21:36
    The Shiba Inu Of This Cycle: Analyst Shares Why It Is Better To Buy PEPE Now
    In the bull market cycle of 2021-2022, the Shiba Inu meme coin made waves in a way that changed the face of meme coins forever. This came after Dogecoin’s initial 36,000% rally, and Shiba Inu...
    newsbtc.com
    Apr 4, 2026 07:30
    PEPE Explodes by 18% Amid Altcoin Rally, BTC Tapped $74K: Market Watch
    The frog-themed meme coin is today's biggest gainer, followed by TAO, DOT, and BONK.
    cryptopotato.com
    Mar 16, 2026 10:56
    Should PEPE traders brace for volatility as short squeeze potential builds?
    The memecoin market has seen its collective market capitalization drop by 48% over the past year, and 6.9% over the past month, according to CoinMarketCap. According to Glassnode, the memecoin...
    ambcrypto.com
    Mar 7, 2026 18:00
    Geben Sie einfach das Kommando im Chat ein. Ersetzen Sie dabei nick1 durch den jeweiligen Nick.
    • /ignore nick1 Einen Chat-User ignorieren
    • /unignore nick1 Einen Chat-User nicht mehr ignorieren
    • /ignorelist Ignorierte Chat-User anzeigen